Year,Month,Day,Hour,Minute,Value (Times are PST for temperature in C)
2017,11,17,00,00,3.20
2017,11,17,00,01,3.20
2017,11,17,00,02,3.10
2017,11,17,00,03,3.10
2017,11,17,00,04,3.10
2017,11,17,00,05,3.10
2017,11,17,00,06,3.10
2017,11,17,00,07,3.10
2017,11,17,00,08,3.10
2017,11,17,00,09,3.10
2017,11,17,00,10,3.10
2017,11,17,00,11,3.10
2017,11,17,00,12,3.10
2017,11,17,00,13,3.10
2017,11,17,00,14,3.10
2017,11,17,00,15,3.10
2017,11,17,00,16,3.10
2017,11,17,00,17,3.10
2017,11,17,00,18,3.20
2017,11,17,00,19,3.20
2017,11,17,00,20,3.20
2017,11,17,00,21,3.20
2017,11,17,00,22,3.20
2017,11,17,00,23,3.20
2017,11,17,00,24,3.20
2017,11,17,00,25,3.10
2017,11,17,00,26,3.10
2017,11,17,00,27,3.10
2017,11,17,00,28,3.10
2017,11,17,00,29,3.10
2017,11,17,00,30,3.00
2017,11,17,00,31,3.00
2017,11,17,00,32,3.00
2017,11,17,00,33,3.00
2017,11,17,00,34,3.00
2017,11,17,00,35,2.90
2017,11,17,00,36,2.90
2017,11,17,00,37,2.90
2017,11,17,00,38,2.90
2017,11,17,00,39,2.90
2017,11,17,00,40,2.90
2017,11,17,00,41,2.80
2017,11,17,00,42,2.80
2017,11,17,00,43,2.80
2017,11,17,00,44,2.80
2017,11,17,00,45,2.80
2017,11,17,00,46,2.80
2017,11,17,00,47,2.80
2017,11,17,00,48,2.80
2017,11,17,00,49,2.80
2017,11,17,00,50,2.80
2017,11,17,00,51,2.70
2017,11,17,00,52,2.70
2017,11,17,00,53,2.70
2017,11,17,00,54,2.70
2017,11,17,00,55,2.70
2017,11,17,00,56,2.70
2017,11,17,00,57,2.70
2017,11,17,00,58,2.70
2017,11,17,00,59,2.70
2017,11,17,01,00,2.70
2017,11,17,01,01,2.60
2017,11,17,01,02,2.60
2017,11,17,01,03,2.60
2017,11,17,01,04,2.60
2017,11,17,01,05,2.60
2017,11,17,01,06,2.60
2017,11,17,01,07,2.50
2017,11,17,01,08,2.50
2017,11,17,01,09,2.50
2017,11,17,01,10,2.50
2017,11,17,01,11,2.50
2017,11,17,01,12,2.50
2017,11,17,01,13,2.50
2017,11,17,01,14,2.50
2017,11,17,01,15,2.50
2017,11,17,01,16,2.50
2017,11,17,01,17,2.50
2017,11,17,01,18,2.50
2017,11,17,01,19,2.50
2017,11,17,01,20,2.50
2017,11,17,01,21,2.50
2017,11,17,01,22,2.40
2017,11,17,01,23,2.40
2017,11,17,01,24,2.40
2017,11,17,01,25,2.40
2017,11,17,01,26,2.40
2017,11,17,01,27,2.40
2017,11,17,01,28,2.40
2017,11,17,01,29,2.40
2017,11,17,01,30,2.40
2017,11,17,01,31,2.40
2017,11,17,01,32,2.40
2017,11,17,01,33,2.40
2017,11,17,01,34,2.40
2017,11,17,01,35,2.40
2017,11,17,01,36,2.40
2017,11,17,01,37,2.40
2017,11,17,01,38,2.40
2017,11,17,01,39,2.40
2017,11,17,01,40,2.40
2017,11,17,01,41,2.40
2017,11,17,01,42,2.40
2017,11,17,01,43,2.40
2017,11,17,01,44,2.30
2017,11,17,01,45,2.30
2017,11,17,01,46,2.30
2017,11,17,01,47,2.30
2017,11,17,01,48,2.30
2017,11,17,01,49,2.30
2017,11,17,01,50,2.30
2017,11,17,01,51,2.30
2017,11,17,01,52,2.30
2017,11,17,01,53,2.30
2017,11,17,01,54,2.30
2017,11,17,01,55,2.30
2017,11,17,01,56,2.30
2017,11,17,01,57,2.30
2017,11,17,01,58,2.30
2017,11,17,01,59,2.30
2017,11,17,02,00,2.30
2017,11,17,02,01,2.30
2017,11,17,02,02,2.30
2017,11,17,02,03,2.30
2017,11,17,02,04,2.30
2017,11,17,02,05,2.30
2017,11,17,02,06,2.30
2017,11,17,02,07,2.30
2017,11,17,02,08,2.30
2017,11,17,02,09,2.30
2017,11,17,02,10,2.30
2017,11,17,02,11,2.30
2017,11,17,02,12,2.30
2017,11,17,02,13,2.30
2017,11,17,02,14,2.20
2017,11,17,02,15,2.20
2017,11,17,02,16,2.20
2017,11,17,02,17,2.20
2017,11,17,02,18,2.20
2017,11,17,02,19,2.20
2017,11,17,02,20,2.10
2017,11,17,02,21,2.10
2017,11,17,02,22,2.10
2017,11,17,02,23,2.10
2017,11,17,02,24,2.10
2017,11,17,02,25,2.10
2017,11,17,02,26,2.10
2017,11,17,02,27,2.10
2017,11,17,02,28,2.10
2017,11,17,02,29,2.00
2017,11,17,02,30,2.10
2017,11,17,02,31,2.10
2017,11,17,02,32,2.10
2017,11,17,02,33,2.10
2017,11,17,02,34,2.00
2017,11,17,02,35,2.00
2017,11,17,02,36,2.00
2017,11,17,02,37,2.00
2017,11,17,02,38,2.00
2017,11,17,02,39,2.00
2017,11,17,02,40,2.00
2017,11,17,02,41,2.00
2017,11,17,02,42,1.90
2017,11,17,02,43,1.90
2017,11,17,02,44,1.90
2017,11,17,02,45,1.90
2017,11,17,02,46,1.90
2017,11,17,02,47,1.90
2017,11,17,02,48,1.90
2017,11,17,02,49,1.90
2017,11,17,02,50,1.90
2017,11,17,02,51,1.90
2017,11,17,02,52,1.90
2017,11,17,02,53,1.90
2017,11,17,02,54,1.90
2017,11,17,02,55,1.90
2017,11,17,02,56,1.90
2017,11,17,02,57,1.90
2017,11,17,02,58,1.90
2017,11,17,02,59,1.90
2017,11,17,03,00,1.80
2017,11,17,03,01,1.80
2017,11,17,03,02,1.80
2017,11,17,03,03,1.80
2017,11,17,03,04,1.80
2017,11,17,03,05,1.80
2017,11,17,03,06,1.80
2017,11,17,03,07,1.70
2017,11,17,03,08,1.70
2017,11,17,03,09,1.70
2017,11,17,03,10,1.70
2017,11,17,03,11,1.70
2017,11,17,03,12,1.70
2017,11,17,03,13,1.70
2017,11,17,03,14,1.70
2017,11,17,03,15,1.60
2017,11,17,03,16,1.60
2017,11,17,03,17,1.60
2017,11,17,03,18,1.60
2017,11,17,03,19,1.60
2017,11,17,03,20,1.60
2017,11,17,03,21,1.60
2017,11,17,03,22,1.50
2017,11,17,03,23,1.50
2017,11,17,03,24,1.50
2017,11,17,03,25,1.50
2017,11,17,03,26,1.50
2017,11,17,03,27,1.40
2017,11,17,03,28,1.40
2017,11,17,03,29,1.40
2017,11,17,03,30,1.40
2017,11,17,03,31,1.40
2017,11,17,03,32,1.40
2017,11,17,03,33,1.40
2017,11,17,03,34,1.30
2017,11,17,03,35,1.40
2017,11,17,03,36,1.30
2017,11,17,03,37,1.30
2017,11,17,03,38,1.30
2017,11,17,03,39,1.30
2017,11,17,03,40,1.30
2017,11,17,03,41,1.30
2017,11,17,03,42,1.30
2017,11,17,03,43,1.30
2017,11,17,03,44,1.30
2017,11,17,03,45,1.30
2017,11,17,03,46,1.30
2017,11,17,03,47,1.30
2017,11,17,03,48,1.30
2017,11,17,03,49,1.30
2017,11,17,03,50,1.30
2017,11,17,03,51,1.30
2017,11,17,03,52,1.30
2017,11,17,03,53,1.30
2017,11,17,03,54,1.30
2017,11,17,03,55,1.30
2017,11,17,03,56,1.30
2017,11,17,03,57,1.30
2017,11,17,03,58,1.30
2017,11,17,03,59,1.30
2017,11,17,04,00,1.30
2017,11,17,04,01,1.30
2017,11,17,04,02,1.30
2017,11,17,04,03,1.30
2017,11,17,04,04,1.30
2017,11,17,04,05,1.30
2017,11,17,04,06,1.30
2017,11,17,04,07,1.30
2017,11,17,04,08,1.30
2017,11,17,04,09,1.30
2017,11,17,04,10,1.30
2017,11,17,04,11,1.30
2017,11,17,04,12,1.30
2017,11,17,04,13,1.30
2017,11,17,04,14,1.30
2017,11,17,04,15,1.30
2017,11,17,04,16,1.30
2017,11,17,04,17,1.30
2017,11,17,04,18,1.30
2017,11,17,04,19,1.30
2017,11,17,04,20,1.30
2017,11,17,04,21,1.30
2017,11,17,04,22,1.30
2017,11,17,04,23,1.30
2017,11,17,04,24,1.30
2017,11,17,04,25,1.30
2017,11,17,04,26,1.30
2017,11,17,04,27,1.30
2017,11,17,04,28,1.30
2017,11,17,04,29,1.30
2017,11,17,04,30,1.30
2017,11,17,04,31,1.30
2017,11,17,04,32,1.30
2017,11,17,04,33,1.30
2017,11,17,04,34,1.30
2017,11,17,04,35,1.30
2017,11,17,04,36,1.30
2017,11,17,04,37,1.30
2017,11,17,04,38,1.30
2017,11,17,04,39,1.30
2017,11,17,04,40,1.30
2017,11,17,04,41,1.30
2017,11,17,04,42,1.30
2017,11,17,04,43,1.40
2017,11,17,04,44,1.40
2017,11,17,04,45,1.50
2017,11,17,04,46,1.50
2017,11,17,04,47,1.60
2017,11,17,04,48,1.60
2017,11,17,04,49,1.60
2017,11,17,04,50,1.60
2017,11,17,04,51,1.60
2017,11,17,04,52,1.60
2017,11,17,04,53,1.60
2017,11,17,04,54,1.60
2017,11,17,04,55,1.60
2017,11,17,04,56,1.60
2017,11,17,04,57,1.60
2017,11,17,04,58,1.60
2017,11,17,04,59,1.60
2017,11,17,05,00,1.60
2017,11,17,05,01,1.60
2017,11,17,05,02,1.60
2017,11,17,05,03,1.60
2017,11,17,05,04,1.60
2017,11,17,05,05,1.60
2017,11,17,05,06,1.60
2017,11,17,05,07,1.60
2017,11,17,05,08,1.60
2017,11,17,05,09,1.60
2017,11,17,05,10,1.60
2017,11,17,05,11,1.60
2017,11,17,05,12,1.60
2017,11,17,05,13,1.60
2017,11,17,05,14,1.60
2017,11,17,05,15,1.60
2017,11,17,05,16,1.60
2017,11,17,05,17,1.60
2017,11,17,05,18,1.60
2017,11,17,05,19,1.60
2017,11,17,05,20,1.60
2017,11,17,05,21,1.60
2017,11,17,05,22,1.50
2017,11,17,05,23,1.50
2017,11,17,05,24,1.50
2017,11,17,05,25,1.50
2017,11,17,05,26,1.40
2017,11,17,05,27,1.40
2017,11,17,05,28,1.30
2017,11,17,05,29,1.30
2017,11,17,05,30,1.30
2017,11,17,05,31,1.30
2017,11,17,05,32,1.30
2017,11,17,05,33,1.30
2017,11,17,05,34,1.30
2017,11,17,05,35,1.30
2017,11,17,05,36,1.30
2017,11,17,05,37,1.30
2017,11,17,05,38,1.30
2017,11,17,05,39,1.30
2017,11,17,05,40,1.30
2017,11,17,05,41,1.30
2017,11,17,05,42,1.30
2017,11,17,05,43,1.30
2017,11,17,05,44,1.30
2017,11,17,05,45,1.30
2017,11,17,05,46,1.30
2017,11,17,05,47,1.30
2017,11,17,05,48,1.30
2017,11,17,05,49,1.30
2017,11,17,05,50,1.30
2017,11,17,05,51,1.30
2017,11,17,05,52,1.30
2017,11,17,05,53,1.30
2017,11,17,05,54,1.30
2017,11,17,05,55,1.30
2017,11,17,05,56,1.30
2017,11,17,05,57,1.30
2017,11,17,05,58,1.30
2017,11,17,05,59,1.30
2017,11,17,06,00,1.30
2017,11,17,06,01,1.30
2017,11,17,06,02,1.30
2017,11,17,06,03,1.30
2017,11,17,06,04,1.30
2017,11,17,06,05,1.30
2017,11,17,06,06,1.30
2017,11,17,06,07,1.30
2017,11,17,06,08,1.30
2017,11,17,06,09,1.30
2017,11,17,06,10,1.30
2017,11,17,06,11,1.30
2017,11,17,06,12,1.30
2017,11,17,06,13,1.30
2017,11,17,06,14,1.30
2017,11,17,06,15,1.30
2017,11,17,06,16,1.30
2017,11,17,06,17,1.30
2017,11,17,06,18,1.40
2017,11,17,06,19,1.40
2017,11,17,06,20,1.40
2017,11,17,06,21,1.40
2017,11,17,06,22,1.40
2017,11,17,06,23,1.40
2017,11,17,06,24,1.50
2017,11,17,06,25,1.50
2017,11,17,06,26,1.50
2017,11,17,06,27,1.50
2017,11,17,06,28,1.50
2017,11,17,06,29,1.40
2017,11,17,06,30,1.40
2017,11,17,06,31,1.40
2017,11,17,06,32,1.40
2017,11,17,06,33,1.40
2017,11,17,06,34,1.40
2017,11,17,06,35,1.40
2017,11,17,06,36,1.40
2017,11,17,06,37,1.40
2017,11,17,06,38,1.40
2017,11,17,06,39,1.40
2017,11,17,06,40,1.40
2017,11,17,06,41,1.40
2017,11,17,06,42,1.40
2017,11,17,06,43,1.40
2017,11,17,06,44,1.40
2017,11,17,06,45,1.40
2017,11,17,06,46,1.40
2017,11,17,06,47,1.40
2017,11,17,06,48,1.30
2017,11,17,06,49,1.30
2017,11,17,06,50,1.30
2017,11,17,06,51,1.30
2017,11,17,06,52,1.30
2017,11,17,06,53,1.30
2017,11,17,06,54,1.30
2017,11,17,06,55,1.30
2017,11,17,06,56,1.30
2017,11,17,06,57,1.30
2017,11,17,06,58,1.30
2017,11,17,06,59,1.30
2017,11,17,07,00,1.30
2017,11,17,07,01,1.30
2017,11,17,07,02,1.30
2017,11,17,07,03,1.30
2017,11,17,07,04,1.30
2017,11,17,07,05,1.30
2017,11,17,07,06,1.30
2017,11,17,07,07,1.30
2017,11,17,07,08,1.30
2017,11,17,07,09,1.30
2017,11,17,07,10,1.30
2017,11,17,07,11,1.30
2017,11,17,07,12,1.30
2017,11,17,07,13,1.30
2017,11,17,07,14,1.30
2017,11,17,07,15,1.30
2017,11,17,07,16,1.40
2017,11,17,07,17,1.40
2017,11,17,07,18,1.40
2017,11,17,07,19,1.40
2017,11,17,07,20,1.40
2017,11,17,07,21,1.40
2017,11,17,07,22,1.40
2017,11,17,07,23,1.40
2017,11,17,07,24,1.50
2017,11,17,07,25,1.50
2017,11,17,07,26,1.50
2017,11,17,07,27,1.50
2017,11,17,07,28,1.50
2017,11,17,07,29,1.50
2017,11,17,07,30,1.60
2017,11,17,07,31,1.60
2017,11,17,07,32,1.60
2017,11,17,07,33,1.60
2017,11,17,07,34,1.60
2017,11,17,07,35,1.60
2017,11,17,07,36,1.60
2017,11,17,07,37,1.60
2017,11,17,07,38,1.60
2017,11,17,07,39,1.60
2017,11,17,07,40,1.60
2017,11,17,07,41,1.60
2017,11,17,07,42,1.60
2017,11,17,07,43,1.60
2017,11,17,07,44,1.60
2017,11,17,07,45,1.60
2017,11,17,07,46,1.60
2017,11,17,07,47,1.60
2017,11,17,07,48,1.60
2017,11,17,07,49,1.60
2017,11,17,07,50,1.50
2017,11,17,07,51,1.50
2017,11,17,07,52,1.50
2017,11,17,07,53,1.50
2017,11,17,07,54,1.50
2017,11,17,07,55,1.50
2017,11,17,07,56,1.50
2017,11,17,07,57,1.40
2017,11,17,07,58,1.40
2017,11,17,07,59,1.40
2017,11,17,08,00,1.40
2017,11,17,08,01,1.40
2017,11,17,08,02,1.40
2017,11,17,08,03,1.40
2017,11,17,08,04,1.40
2017,11,17,08,05,1.30
2017,11,17,08,06,1.30
2017,11,17,08,07,1.30
2017,11,17,08,08,1.30
2017,11,17,08,09,1.30
2017,11,17,08,10,1.30
2017,11,17,08,11,1.30
2017,11,17,08,12,1.30
2017,11,17,08,13,1.30
2017,11,17,08,14,1.30
2017,11,17,08,15,1.30
2017,11,17,08,16,1.40
2017,11,17,08,17,1.40
2017,11,17,08,18,1.40
2017,11,17,08,19,1.30
2017,11,17,08,20,1.40
2017,11,17,08,21,1.30
2017,11,17,08,22,1.30
2017,11,17,08,23,1.30
2017,11,17,08,24,1.30
2017,11,17,08,25,1.30
2017,11,17,08,26,1.30
2017,11,17,08,27,1.30
2017,11,17,08,28,1.30
2017,11,17,08,29,1.30
2017,11,17,08,30,1.30
2017,11,17,08,31,1.30
2017,11,17,08,32,1.30
2017,11,17,08,33,1.30
2017,11,17,08,34,1.30
2017,11,17,08,35,1.30
2017,11,17,08,36,1.30
2017,11,17,08,37,1.40
2017,11,17,08,38,1.40
2017,11,17,08,39,1.40
2017,11,17,08,40,1.40
2017,11,17,08,41,1.40
2017,11,17,08,42,1.40
2017,11,17,08,43,1.40
2017,11,17,08,44,1.40
2017,11,17,08,45,1.40
2017,11,17,08,46,1.40
2017,11,17,08,47,1.40
2017,11,17,08,48,1.40
2017,11,17,08,49,1.40
2017,11,17,08,50,1.50
2017,11,17,08,51,1.50
2017,11,17,08,52,1.50
2017,11,17,08,53,1.50
2017,11,17,08,54,1.50
2017,11,17,08,55,1.50
2017,11,17,08,56,1.50
2017,11,17,08,57,1.50
2017,11,17,08,58,1.50
2017,11,17,08,59,1.50
2017,11,17,09,00,1.60
2017,11,17,09,01,1.60
2017,11,17,09,02,1.60
2017,11,17,09,03,1.60
2017,11,17,09,04,1.60
2017,11,17,09,05,1.60
2017,11,17,09,06,1.70
2017,11,17,09,07,1.70
2017,11,17,09,08,1.70
2017,11,17,09,09,1.70
2017,11,17,09,10,1.70
2017,11,17,09,11,1.80
2017,11,17,09,12,1.80
2017,11,17,09,13,1.80
2017,11,17,09,14,1.80
2017,11,17,09,15,1.80
2017,11,17,09,16,1.90
2017,11,17,09,17,1.90
2017,11,17,09,18,1.90
2017,11,17,09,19,1.90
2017,11,17,09,20,1.90
2017,11,17,09,21,1.90
2017,11,17,09,22,2.00
2017,11,17,09,23,2.00
2017,11,17,09,24,2.00
2017,11,17,09,25,2.00
2017,11,17,09,26,2.10
2017,11,17,09,27,2.10
2017,11,17,09,28,2.10
2017,11,17,09,29,2.10
2017,11,17,09,30,2.10
2017,11,17,09,31,2.20
2017,11,17,09,32,2.20
2017,11,17,09,33,2.20
2017,11,17,09,34,2.30
2017,11,17,09,35,2.30
2017,11,17,09,36,2.30
2017,11,17,09,37,2.30
2017,11,17,09,38,2.30
2017,11,17,09,39,2.40
2017,11,17,09,40,2.40
2017,11,17,09,41,2.50
2017,11,17,09,42,2.50
2017,11,17,09,43,2.60
2017,11,17,09,44,2.60
2017,11,17,09,45,2.60
2017,11,17,09,46,2.70
2017,11,17,09,47,2.70
2017,11,17,09,48,2.80
2017,11,17,09,49,2.80
2017,11,17,09,50,2.80
2017,11,17,09,51,2.80
2017,11,17,09,52,2.90
2017,11,17,09,53,2.90
2017,11,17,09,54,2.90
2017,11,17,09,55,3.00
2017,11,17,09,56,3.00
2017,11,17,09,57,3.00
2017,11,17,09,58,3.00
2017,11,17,09,59,3.10
2017,11,17,10,00,3.10
2017,11,17,10,01,3.10
2017,11,17,10,02,3.10
2017,11,17,10,03,3.10
2017,11,17,10,04,3.10
2017,11,17,10,05,3.20
2017,11,17,10,06,3.20
2017,11,17,10,07,3.20
2017,11,17,10,08,3.20
2017,11,17,10,09,3.20
2017,11,17,10,10,3.20
2017,11,17,10,11,3.30
2017,11,17,10,12,3.30
2017,11,17,10,13,3.30
2017,11,17,10,14,3.30
2017,11,17,10,15,3.30
2017,11,17,10,16,3.30
2017,11,17,10,17,3.40
2017,11,17,10,18,3.40
2017,11,17,10,19,3.40
2017,11,17,10,20,3.40
2017,11,17,10,21,3.50
2017,11,17,10,22,3.50
2017,11,17,10,23,3.60
2017,11,17,10,24,3.60
2017,11,17,10,25,3.70
2017,11,17,10,26,3.70
2017,11,17,10,27,3.70
2017,11,17,10,28,3.70
2017,11,17,10,29,3.70
2017,11,17,10,30,3.80
2017,11,17,10,31,3.80
2017,11,17,10,32,3.80
2017,11,17,10,33,3.80
2017,11,17,10,34,3.80
2017,11,17,10,35,3.80
2017,11,17,10,36,3.80
2017,11,17,10,37,3.90
2017,11,17,10,38,3.90
2017,11,17,10,39,3.90
2017,11,17,10,40,4.00
2017,11,17,10,41,4.00
2017,11,17,10,42,4.10
2017,11,17,10,43,4.10
2017,11,17,10,44,4.10
2017,11,17,10,45,4.10
2017,11,17,10,46,4.20
2017,11,17,10,47,4.20
2017,11,17,10,48,4.20
2017,11,17,10,49,4.20
2017,11,17,10,50,4.20
2017,11,17,10,51,4.30
2017,11,17,10,52,4.30
2017,11,17,10,53,4.30
2017,11,17,10,54,4.30
2017,11,17,10,55,4.30
2017,11,17,10,56,4.30
2017,11,17,10,57,4.30
2017,11,17,10,58,4.40
2017,11,17,10,59,4.40
2017,11,17,11,00,4.40
2017,11,17,11,01,4.40
2017,11,17,11,02,4.50
2017,11,17,11,03,4.50
2017,11,17,11,04,4.50
2017,11,17,11,05,4.60
2017,11,17,11,06,4.60
2017,11,17,11,07,4.60
2017,11,17,11,08,4.60
2017,11,17,11,09,4.60
2017,11,17,11,10,4.70
2017,11,17,11,11,4.70
2017,11,17,11,12,4.70
2017,11,17,11,13,4.70
2017,11,17,11,14,4.70
2017,11,17,11,15,4.70
2017,11,17,11,16,4.70
2017,11,17,11,17,4.70
2017,11,17,11,18,4.70
2017,11,17,11,19,4.70
2017,11,17,11,20,4.70
2017,11,17,11,21,4.70
2017,11,17,11,22,4.70
2017,11,17,11,23,4.70
2017,11,17,11,24,4.70
2017,11,17,11,25,4.70
2017,11,17,11,26,4.70
2017,11,17,11,27,4.70
2017,11,17,11,28,4.80
2017,11,17,11,29,4.80
2017,11,17,11,30,4.80
2017,11,17,11,31,4.80
2017,11,17,11,32,4.80
2017,11,17,11,33,4.90
2017,11,17,11,34,4.90
2017,11,17,11,35,5.00
2017,11,17,11,36,5.00
2017,11,17,11,37,5.00
2017,11,17,11,38,5.10
2017,11,17,11,39,5.10
2017,11,17,11,40,5.20
2017,11,17,11,41,5.20
2017,11,17,11,42,5.20
2017,11,17,11,43,5.30
2017,11,17,11,44,5.30
2017,11,17,11,45,5.40
2017,11,17,11,46,5.40
2017,11,17,11,47,5.40
2017,11,17,11,48,5.40
2017,11,17,11,49,5.40
2017,11,17,11,50,5.40
2017,11,17,11,51,5.40
2017,11,17,11,52,5.40
2017,11,17,11,53,5.30
2017,11,17,11,54,5.30
2017,11,17,11,55,5.30
2017,11,17,11,56,5.30
2017,11,17,11,57,5.30
2017,11,17,11,58,5.30
2017,11,17,11,59,5.30
2017,11,17,12,00,5.30
2017,11,17,12,01,5.30
2017,11,17,12,02,5.40
2017,11,17,12,03,5.40
2017,11,17,12,04,5.40
2017,11,17,12,05,5.40
2017,11,17,12,06,5.40
2017,11,17,12,07,5.40
2017,11,17,12,08,5.40
2017,11,17,12,09,5.50
2017,11,17,12,10,5.50
2017,11,17,12,11,5.50
2017,11,17,12,12,5.60
2017,11,17,12,13,5.60
2017,11,17,12,14,5.60
2017,11,17,12,15,5.60
2017,11,17,12,16,5.60
2017,11,17,12,17,5.70
2017,11,17,12,18,5.70
2017,11,17,12,19,5.70
2017,11,17,12,20,5.70
2017,11,17,12,21,5.70
2017,11,17,12,22,5.70
2017,11,17,12,23,5.70
2017,11,17,12,24,5.70
2017,11,17,12,25,5.70
2017,11,17,12,26,5.70
2017,11,17,12,27,5.60
2017,11,17,12,28,5.60
2017,11,17,12,29,5.40
2017,11,17,12,30,5.30
2017,11,17,12,31,5.20
2017,11,17,12,32,5.10
2017,11,17,12,33,5.00
2017,11,17,12,34,5.00
2017,11,17,12,35,5.00
2017,11,17,12,36,4.90
2017,11,17,12,37,4.90
2017,11,17,12,38,4.80
2017,11,17,12,39,4.80
2017,11,17,12,40,4.80
2017,11,17,12,41,4.80
2017,11,17,12,42,4.80
2017,11,17,12,43,4.80
2017,11,17,12,44,4.90
2017,11,17,12,45,4.90
2017,11,17,12,46,4.90
2017,11,17,12,47,5.00
2017,11,17,12,48,5.00
2017,11,17,12,49,5.10
2017,11,17,12,50,5.10
2017,11,17,12,51,5.10
2017,11,17,12,52,5.10
2017,11,17,12,53,5.10
2017,11,17,12,54,5.20
2017,11,17,12,55,5.20
2017,11,17,12,56,5.20
2017,11,17,12,57,5.20
2017,11,17,12,58,5.30
2017,11,17,12,59,5.30
2017,11,17,13,00,5.30
2017,11,17,13,01,5.40
2017,11,17,13,02,5.40
2017,11,17,13,03,5.40
2017,11,17,13,04,5.40
2017,11,17,13,05,5.50
2017,11,17,13,06,5.50
2017,11,17,13,07,5.60
2017,11,17,13,08,5.60
2017,11,17,13,09,5.70
2017,11,17,13,10,5.70
2017,11,17,13,11,5.70
2017,11,17,13,12,5.70
2017,11,17,13,13,5.80
2017,11,17,13,14,5.80
2017,11,17,13,15,5.80
2017,11,17,13,16,5.70
2017,11,17,13,17,5.70
2017,11,17,13,18,5.60
2017,11,17,13,19,5.60
2017,11,17,13,20,5.60
2017,11,17,13,21,5.60
2017,11,17,13,22,5.60
2017,11,17,13,23,5.60
2017,11,17,13,24,5.60
2017,11,17,13,25,5.60
2017,11,17,13,26,5.50
2017,11,17,13,27,5.50
2017,11,17,13,28,5.50
2017,11,17,13,29,5.60
2017,11,17,13,30,5.60
2017,11,17,13,31,5.60
2017,11,17,13,32,5.60
2017,11,17,13,33,5.60
2017,11,17,13,34,5.60
2017,11,17,13,35,5.60
2017,11,17,13,36,5.60
2017,11,17,13,37,5.60
2017,11,17,13,38,5.60
2017,11,17,13,39,5.60
2017,11,17,13,40,5.60
2017,11,17,13,41,5.70
2017,11,17,13,42,5.70
2017,11,17,13,43,5.70
2017,11,17,13,44,5.70
2017,11,17,13,45,5.70
2017,11,17,13,46,5.80
2017,11,17,13,47,5.80
2017,11,17,13,48,5.80
2017,11,17,13,49,5.80
2017,11,17,13,50,5.80
2017,11,17,13,51,5.90
2017,11,17,13,52,5.90
2017,11,17,13,53,5.90
2017,11,17,13,54,5.90
2017,11,17,13,55,5.90
2017,11,17,13,56,5.90
2017,11,17,13,57,5.90
2017,11,17,13,58,5.90
2017,11,17,13,59,5.90
2017,11,17,14,00,5.90
2017,11,17,14,01,5.90
2017,11,17,14,02,5.90
2017,11,17,14,03,5.90
2017,11,17,14,04,5.80
2017,11,17,14,05,5.80
2017,11,17,14,06,5.80
2017,11,17,14,07,5.80
2017,11,17,14,08,5.80
2017,11,17,14,09,5.90
2017,11,17,14,10,5.80
2017,11,17,14,11,5.90
2017,11,17,14,12,5.90
2017,11,17,14,13,5.90
2017,11,17,14,14,5.90
2017,11,17,14,15,5.90
2017,11,17,14,16,5.90
2017,11,17,14,17,5.90
2017,11,17,14,18,5.90
2017,11,17,14,19,5.90
2017,11,17,14,20,5.90
2017,11,17,14,21,5.80
2017,11,17,14,22,5.80
2017,11,17,14,23,5.80
2017,11,17,14,24,5.80
2017,11,17,14,25,5.80
2017,11,17,14,26,5.90
2017,11,17,14,27,5.90
2017,11,17,14,28,5.90
2017,11,17,14,29,5.90
2017,11,17,14,30,5.90
2017,11,17,14,31,5.90
2017,11,17,14,32,5.90
2017,11,17,14,33,5.90
2017,11,17,14,34,5.90
2017,11,17,14,35,6.00
2017,11,17,14,36,6.00
2017,11,17,14,37,6.00
2017,11,17,14,38,6.00
2017,11,17,14,39,6.00
2017,11,17,14,40,6.00
2017,11,17,14,41,6.00
2017,11,17,14,42,6.00
2017,11,17,14,43,6.00
2017,11,17,14,44,6.00
2017,11,17,14,45,6.00
2017,11,17,14,46,6.00
2017,11,17,14,47,6.00
2017,11,17,14,48,6.00
2017,11,17,14,49,6.00
2017,11,17,14,50,6.00
2017,11,17,14,51,6.10
2017,11,17,14,52,6.10
2017,11,17,14,53,6.10
2017,11,17,14,54,6.10
2017,11,17,14,55,6.10
2017,11,17,14,56,6.10
2017,11,17,14,57,6.10
2017,11,17,14,58,6.10
2017,11,17,14,59,6.10
2017,11,17,15,00,6.10
2017,11,17,15,01,6.10
2017,11,17,15,02,6.10
2017,11,17,15,03,6.10
2017,11,17,15,04,6.10
2017,11,17,15,05,6.10
2017,11,17,15,06,6.10
2017,11,17,15,07,6.10
2017,11,17,15,08,6.10
2017,11,17,15,09,6.10
2017,11,17,15,10,6.10
2017,11,17,15,11,6.10
2017,11,17,15,12,6.10
2017,11,17,15,13,6.10
2017,11,17,15,14,6.10
2017,11,17,15,15,6.10
2017,11,17,15,16,6.10
2017,11,17,15,17,6.10
2017,11,17,15,18,6.10
2017,11,17,15,19,6.10
2017,11,17,15,20,6.10
2017,11,17,15,21,6.10
2017,11,17,15,22,6.10
2017,11,17,15,23,6.10
2017,11,17,15,24,6.00
2017,11,17,15,25,6.00
2017,11,17,15,26,6.00
2017,11,17,15,27,6.00
2017,11,17,15,28,6.00
2017,11,17,15,29,6.00
2017,11,17,15,30,5.90
2017,11,17,15,31,5.90
2017,11,17,15,32,5.90
2017,11,17,15,33,5.90
2017,11,17,15,34,5.90
2017,11,17,15,35,5.90
2017,11,17,15,36,5.90
2017,11,17,15,37,5.90
2017,11,17,15,38,5.90
2017,11,17,15,39,5.90
2017,11,17,15,40,5.90
2017,11,17,15,41,5.90
2017,11,17,15,42,5.90
2017,11,17,15,43,5.90
2017,11,17,15,44,5.90
2017,11,17,15,45,5.90
2017,11,17,15,46,5.90
2017,11,17,15,47,5.90
2017,11,17,15,48,5.90
2017,11,17,15,49,5.90
2017,11,17,15,50,5.90
2017,11,17,15,51,5.80
2017,11,17,15,52,5.80
2017,11,17,15,53,5.80
2017,11,17,15,54,5.80
2017,11,17,15,55,5.80
2017,11,17,15,56,5.70
2017,11,17,15,57,5.70
2017,11,17,15,58,5.70
2017,11,17,15,59,5.70
2017,11,17,16,00,5.60
2017,11,17,16,01,5.60
2017,11,17,16,02,5.60
2017,11,17,16,03,5.50
2017,11,17,16,04,5.50
2017,11,17,16,05,5.40
2017,11,17,16,06,5.40
2017,11,17,16,07,5.40
2017,11,17,16,08,5.40
2017,11,17,16,09,5.30
2017,11,17,16,10,5.30
2017,11,17,16,11,5.30
2017,11,17,16,12,5.20
2017,11,17,16,13,5.20
2017,11,17,16,14,5.20
2017,11,17,16,15,5.20
2017,11,17,16,16,5.20
2017,11,17,16,17,5.10
2017,11,17,16,18,5.10
2017,11,17,16,19,5.10
2017,11,17,16,20,5.10
2017,11,17,16,21,5.10
2017,11,17,16,22,5.10
2017,11,17,16,23,5.10
2017,11,17,16,24,5.10
2017,11,17,16,25,5.10
2017,11,17,16,26,5.10
2017,11,17,16,27,5.10
2017,11,17,16,28,5.10
2017,11,17,16,29,5.00
2017,11,17,16,30,5.00
2017,11,17,16,31,5.00
2017,11,17,16,32,5.00
2017,11,17,16,33,5.00
2017,11,17,16,34,5.00
2017,11,17,16,35,4.90
2017,11,17,16,36,4.90
2017,11,17,16,37,4.90
2017,11,17,16,38,4.90
2017,11,17,16,39,4.90
2017,11,17,16,40,4.90
2017,11,17,16,41,4.80
2017,11,17,16,42,4.80
2017,11,17,16,43,4.80
2017,11,17,16,44,4.80
2017,11,17,16,45,4.80
2017,11,17,16,46,4.80
2017,11,17,16,47,4.70
2017,11,17,16,48,4.70
2017,11,17,16,49,4.70
2017,11,17,16,50,4.70
2017,11,17,16,51,4.70
2017,11,17,16,52,4.70
2017,11,17,16,53,4.60
2017,11,17,16,54,4.60
2017,11,17,16,55,4.60
2017,11,17,16,56,4.50
2017,11,17,16,57,4.50
2017,11,17,16,58,4.50
2017,11,17,16,59,4.40
2017,11,17,17,00,4.40
2017,11,17,17,01,4.40
2017,11,17,17,02,4.30
2017,11,17,17,03,4.30
2017,11,17,17,04,4.30
2017,11,17,17,05,4.30
2017,11,17,17,06,4.30
2017,11,17,17,07,4.20
2017,11,17,17,08,4.20
2017,11,17,17,09,4.20
2017,11,17,17,10,4.20
2017,11,17,17,11,4.20
2017,11,17,17,12,4.20
2017,11,17,17,13,4.10
2017,11,17,17,14,4.10
2017,11,17,17,15,4.10
2017,11,17,17,16,4.10
2017,11,17,17,17,4.00
2017,11,17,17,18,4.00
2017,11,17,17,19,4.00
2017,11,17,17,20,4.00
2017,11,17,17,21,3.90
2017,11,17,17,22,3.90
2017,11,17,17,23,3.90
2017,11,17,17,24,3.90
2017,11,17,17,25,3.90
2017,11,17,17,26,3.90
2017,11,17,17,27,3.90
2017,11,17,17,28,3.90
2017,11,17,17,29,3.90
2017,11,17,17,30,3.90
2017,11,17,17,31,3.80
2017,11,17,17,32,3.80
2017,11,17,17,33,3.80
2017,11,17,17,34,3.80
2017,11,17,17,35,3.80
2017,11,17,17,36,3.80
2017,11,17,17,37,3.80
2017,11,17,17,38,3.80
2017,11,17,17,39,3.80
2017,11,17,17,40,3.80
2017,11,17,17,41,3.70
2017,11,17,17,42,3.70
2017,11,17,17,43,3.70
2017,11,17,17,44,3.70
2017,11,17,17,45,3.70
2017,11,17,17,46,3.70
2017,11,17,17,47,3.70
2017,11,17,17,48,3.70
2017,11,17,17,49,3.70
2017,11,17,17,50,3.70
2017,11,17,17,51,3.70
2017,11,17,17,52,3.70
2017,11,17,17,53,3.70
2017,11,17,17,54,3.70
2017,11,17,17,55,3.70
2017,11,17,17,56,3.70
2017,11,17,17,57,3.70
2017,11,17,17,58,3.70
2017,11,17,17,59,3.70
2017,11,17,18,00,3.70
2017,11,17,18,01,3.70
2017,11,17,18,02,3.70
2017,11,17,18,03,3.70
2017,11,17,18,04,3.70
2017,11,17,18,05,3.70
2017,11,17,18,06,3.70